Weather Roundup
Issued by NWS Springfield, MO

Home | Current Version | Previous Version | Text Only | Print | Product List | Glossary On
Versions: 1 2 3 4 5 6 7 8 9 10 11 12 13 14 15 16 17 18 19 20 21 22 23 24 25 26 27 28 29 30 31 32 33 34 35 36 37 38 39 40 41 42 43 44 45 46 47 48 49 50
000
NZUS99 KSGF 280957
HRRSGF

HOURLY WEATHER
NATIONAL WEATHER SERVICE SPRINGFIELD MO
500 AM CDT FRI AUG 28 2015

......SGF CWA......

CITY           SKY/WX    TMP DP  RH WIND       PRES   REMARKS
SPRINGFIELD    PTCLDY    64  58  80 S9        30.05R
JOPLIN         CLOUDY    67  62  84 SE6       30.03R
WEST PLAINS    PTCLDY    58  55  90 CALM      30.10S
ROLLA          MOCLDY    59  57  93 SE7       30.08S

......SURROUNDING SGF CWA......

CITY           SKY/WX    TMP DP  RH WIND       PRES   REMARKS
CHANUTE        CLOUDY    66  64  93 S8        30.00S
COFFEYVILLE    MOCLDY    65  64  97 SE6       29.99S
EMPORIA        CLOUDY    68  64  87 S8        29.94F

......KANSAS AND MISSOURI......

CITY           SKY/WX    TMP DP  RH WIND       PRES   REMARKS
KANSAS CTY INT CLOUDY    69  64  84 S10       29.97S
SEDALIA        CLOUDY    65  60  84 S9        30.05S
ST JOSEPH      CLOUDY    70  65  84 SE10G21   29.93F
ST LOUIS       PTCLDY    64  58  80 SE6       30.10S
WICHITA        LGT RAIN  74  66  76 SW10      29.93S
TOPEKA         CLOUDY    70  63  78 S7        29.94F
OLATHE         CLOUDY    67  64  90 S10       29.97F

......TENNESSEE......

CITY           SKY/WX    TMP DP  RH WIND       PRES   REMARKS
MEMPHIS        NOT AVBL
NASHVILLE      PTCLDY    64  56  75 CALM      30.10R

......ARKANSAS.......

CITY           SKY/WX    TMP DP  RH WIND       PRES   REMARKS
FAYETTEVILLE   CLEAR     60  59  96 E7        30.04F
FT SMITH       CLEAR     65  61  87 E5        30.03S
LITTLE ROCK    PTCLDY    64  61  90 CALM      30.06R

......OKLAHOMA.......

CITY           SKY/WX    TMP DP  RH WIND       PRES   REMARKS
TULSA          CLOUDY    70  66  87 S7        29.97F
PONCA CITY     CLOUDY    73  66  78 S6        29.98S
MCALESTER      PTCLDY    67  63  87 CALM      30.01F
OKLAHOMA CITY  CLOUDY    74  63  68 S8        29.99R

......IOWA............

CITY           SKY/WX    TMP DP  RH WIND       PRES   REMARKS
DES MOINES     NOT AVBL
QUAD CITIES    CLOUDY    61  57  87 CALM      30.08S

......ILLINOIS........

CITY           SKY/WX    TMP DP  RH WIND       PRES   REMARKS
QUINCY         NOT AVBL
CHICAGO        PTCLDY    59  55  87 S3        30.11F



USA.gov is the U.S. government's official web portal to all federal, state and local government web resources and services.